[Iaude] MPEC J205: 2017 BM233 [a=42.61,e=0.02,i=3.0,H=8.76]
    mpec at cfa.harvard.edu 
    mpec at cfa.harvard.edu
       
    Wed May  8 16:27:04 EDT 2024
    
    
  
M.P.E.C. 2024-J205                                  Issued 2024 May 8, 20:24 UT
     The Minor Planet Electronic Circulars contain information on unusual
         minor planets, routine data on comets and natural satellites,
         and occasional editorial announcements.  They are published
    on behalf of Division F of the International Astronomical Union by the
          Minor Planet Center, Smithsonian Astrophysical Observatory,
                          Cambridge, MA 02138, U.S.A.
			  
             Prepared using the Tamkin Foundation Computer Network
                              MPC at CFA.HARVARD.EDU
            URL https://www.minorplanetcenter.net/    ISSN 1523-6714
                                   2017 BM233                                   
Additional Observations:
     K17BN3M 1C2016 04 02.40375212 21 50.85 +00 57 50.5                WEJ205T09
     K17BN3M 1C2016 04 02.52326712 21 50.30 +00 57 54.0                WEJ205T09
     K17BN3M 1C2016 06 05.31719312 18 31.38 +01 16 06.3                WEJ205T09
     K17BN3M 1C2016 06 05.34551812 18 31.35 +01 16 06.3                WEJ205T09
Observer details:
T09 Subaru Telescope, Maunakea.  Observer .  Measurer S. Deen.  8.3-m Subaru
    Telescope + CCD.
Orbital elements:
2017 BM233                                                                      
Epoch 2024 Mar. 31.0 TT = JDT 2460400.5                 Alexandersen            
M  44.17245              (2000.0)            P               Q                  
n   0.00354364     Peri.   65.53252     -0.85968316     -0.50810038             
a  42.6091417      Node    83.89157     +0.44738465     -0.79870288             
e   0.0242067      Incl.    3.03902     +0.24656001     -0.32234718             
P 278              H    8.76          G   0.15           U   8                  
Residuals in seconds of arc
160402 T09  0.0   0.1-    170123 T09  0.2-  0.2+    170201 T09  0.1-  0.0
160402 T09  0.1-  0.0     170123 T09  0.0   0.1+    170201 T09  0.1-  0.0
160605 T09  0.0   0.0     170123 T09  0.1-  0.2-    170201 T09  0.0   0.1-
160605 T09  0.0   0.0     170128 T09  0.2+  0.1+    170201 T09  0.1-  0.1+
170123 T09  0.0   0.1+    170128 T09  0.1+  0.1+    170201 T09  0.0   0.0
170123 T09  0.1+  0.0     170128 T09  0.1+  0.0     170223 T09  0.0   0.0
170123 T09  0.1+  0.1-    170128 T09  0.1+  0.0     170223 T09  0.0   0.2-
170123 T09  0.1-  0.1-    170128 T09  0.0   0.1+    170223 T09  0.0   0.0
Ephemeris:
2017 BM233               a,e,i = 42.61, 0.02, 3                  q = 41.5777
Date    TT    R. A. (2000) Decl.     Delta      r    Elong.  Phase     V
2024 04 08    13 01 47.9 -03 27 22  40.8832 41.8822   176.0     0.1    25.0
...
2024 04 23    13 00 41.3 -03 20 44  40.9253 41.8828   162.0     0.4    25.0
...
2024 05 01    13 00 08.0 -03 17 31  40.9739 41.8832   154.2     0.6    25.0
...
2024 05 07    12 59 44.5 -03 15 20  41.0217 41.8835   148.3     0.7    25.1
2024 05 08    12 59 40.8 -03 14 59  41.0305 41.8835   147.3     0.7    25.1
2024 05 09    12 59 37.1 -03 14 39  41.0396 41.8836   146.3     0.8    25.1
...
2024 05 15    12 59 16.0 -03 12 45  41.0993 41.8839   140.5     0.9    25.1
...
2024 05 23    12 58 51.1 -03 10 36  41.1913 41.8842   132.7     1.0    25.1
...
2024 06 07    12 58 16.1 -03 07 57  41.3962 41.8849   118.2     1.2    25.1
M. P. C. Staff               (C) Copyright 2024 MPC           M.P.E.C. 2024-J205
    
    
More information about the Iaude
mailing list